STARLINK-1357 (45565 NORAD) Tracking and Keplerian Element Data

This shows tracking and keplerian element data for the satellite.

Feedback or suggestion? Click here.




ElementValue
Catalog45565
NameSTARLINK-1357
Epoch Orbit1225
Epoch Day187.50002315
Epoch Year2020
RAAN37.3555
Inclination52.9961
Eccentricity0.0001196
Argument of Perigee58.0384
Mean Anonmoly255.2066
Mean Motion15.58194978
Decay Rate-0.01183809
L11 45565U 20025AL 20187.50002315 -.01183809 00000-0 -17117-1 0 9998
L22 45565 52.9961 37.3555 0001196 58.0384 255.2066 15.58194978 12255

Live tracking and technical data element details for STARLINK-1357 (NORAD 45565). STARLINK-1357 can be tracked NOW for your location showing map with azimuth and elevation plus other details from your city location.

Track the satellite on the map from your city or location and see movement details for azimuth, elevation, latitude, longitude, range, height, and movement on the map or in text.







IsCatalogInMostPopularTable: catalog: 45565, numindb: 18
Update: records affected: 1



GetName: 45565 STARLINK-1357

Hit Count: updated at: Mon, 06 Jul 2020 04:58:54 GMT